[[{"header":{"parameterUnit":"m.s-1","parameterCategory":1,"la1":30.2991,"la2":30.254,"lo1":-89.0895,"lo2":-89.0444,"dy":0.0017,"dx":0.0017,"nx":28,"ny":28,"refTime":"2023-11-20T03:00:00:Z","depth":0,"parameterNumber":2,"parameterNumberName":"U-component_of_WINDS"},"data":[0,0,0,0,0,0,0,0,0,0,0,0,0,0,0,0,0,0,0,0,0,0,0,0,0,0,0,0,0,0,0,0,0,0,0,0,0,0,0,0,0,0,0,0,0,0,0,0,0,0,0,0,0,0,0,0,0,0,4.3097,4.3096,0,4.3013,4.3012,4.3011,4.2929,4.2928,4.2927,4.2925,4.2838,4.2836,4.2835,0,0,0,0,0,0,0,0,0,0,0,0,0,4.3186,4.3184,4.3097,4.3096,4.3095,4.3013,4.3012,4.3011,4.2929,4.2928,4.2926,4.2925,4.2838,4.2836,4.2835,0,0,0,0,0,0,0,0,0,0,0,0,0,4.3129,4.3184,4.3097,4.3044,4.3039,4.3013,4.3012,4.301,4.2929,4.2927,4.2926,4.2924,4.2839,4.2837,4.2835,4.2854,0,0,4.2828,4.2828,0,0,0,0,0,0,0,0,4.3132,4.3126,4.3053,4.3048,4.3042,4.298,4.3011,4.2958,4.2929,4.2971,4.2925,4.2924,4.2886,4.288,4.2868,4.285,4.2846,4.2828,4.2827,4.2826,4.2826,0,0,0,0,0,0,0,4.3136,4.3129,4.3064,4.3052,4.3045,4.3024,4.3014,4.3,4.2938,4.2967,4.2961,4.2952,4.2883,4.287,4.2865,4.2845,4.2828,4.2827,4.2825,4.2825,4.2839,4.2841,0,0,0,0,0,0,4.3149,4.3133,4.3066,4.3061,4.3084,4.3024,4.3013,4.3001,4.2938,4.2927,4.2954,4.2949,4.2874,4.2867,4.2862,4.288,4.2826,4.2824,4.2823,4.2838,4.284,4.2841,0,0,0,0,0,0,4.3151,4.3143,4.307,4.3095,4.3084,4.3024,4.3012,4.3,4.2987,4.2928,4.2916,4.2952,4.2873,4.2864,4.2857,4.2876,4.2823,4.2822,4.2836,4.2838,4.284,4.2918,0,0,0,0,0,0,4.3154,4.3145,4.3152,4.3096,4.3083,4.3067,4.3013,4.3,4.2984,4.2977,4.2924,4.2913,4.2871,4.286,4.2855,4.2872,4.282,4.2834,4.2837,4.284,4.2913,4.2923,4.2931,0,0,0,0,0,4.3157,4.3176,4.3153,4.3145,4.3091,4.3068,4.3061,4.3012,4.2986,4.2993,4.2955,4.2915,4.2875,4.286,4.2853,4.2871,4.2832,4.2836,4.2839,4.2909,4.2921,4.293,0,0,0,0,0,0,4.3235,4.3168,4.3141,4.3143,4.3112,4.3054,4.3061,4.3026,4.3001,4.2995,4.2935,4.2924,4.2923,4.2896,4.288,4.2886,4.2848,4.2851,4.2904,4.2914,4.2923,4.2929,4.2818,0,0,0,0,0,4.3253,4.324,4.3182,4.319,4.3176,4.3121,4.311,4.3075,4.304,4.3026,4.2988,4.2955,4.2935,4.2923,4.2901,4.2909,4.2896,4.2918,4.2927,4.2934,4.2936,4.2939,4.2947,4.2853,4.2853,4.2853,0,0,4.3289,4.3251,4.3246,4.3205,4.3176,4.3165,4.3111,4.31,4.3091,4.3024,4.3015,4.2986,4.2945,4.2946,4.2944,4.2923,4.296,4.2939,4.2945,4.2943,4.2943,4.2952,4.296,4.2856,4.2855,4.2855,0,0,4.3348,4.3318,4.3321,4.3294,4.3253,4.3217,4.3218,4.3165,4.3144,4.3133,4.3083,4.3071,4.3038,4.3011,4.2994,4.3044,4.3006,4.3039,4.3084,4.3086,4.3094,4.31,4.3118,4.3125,4.3042,4.3042,4.3042,0,4.3397,4.3378,4.3327,4.332,4.3303,4.3243,4.3246,4.3222,4.3175,4.3165,4.3143,4.31,4.3069,4.3062,4.3075,4.3062,4.3061,4.3044,4.3097,4.3103,4.3108,4.3124,4.3131,4.3046,4.3046,4.3045,4.3045,0,4.3441,4.3428,4.3436,4.3393,4.3377,4.3375,4.3323,4.3313,4.328,4.3246,4.3236,4.3197,4.3166,4.3162,4.313,4.3151,4.314,4.3108,4.3069,4.3122,4.3136,4.3142,4.3052,4.3051,4.3049,4.3048,0,0,4.3546,4.3476,4.3479,4.3459,4.341,4.3399,4.3394,4.3365,4.3357,4.3327,4.3321,4.3296,4.3266,4.3246,4.321,4.3213,4.3255,4.3181,4.3179,4.3196,4.3276,4.3299,4.3307,4.323,4.3231,4.3232,4.3279,0,4.3596,4.3584,4.3538,4.354,4.3528,4.3472,4.3467,4.3436,4.3405,4.3389,4.3354,4.3337,4.33,4.3287,4.3287,4.325,4.327,4.3246,4.3224,4.3223,4.3235,4.3315,4.3339,4.3386,4.3284,4.3285,4.3286,0,4.3653,4.3628,4.3629,4.358,4.3573,4.357,4.354,4.3526,4.349,4.3466,4.3445,4.3405,4.3396,4.336,4.3348,4.3332,4.332,4.3301,4.3301,4.3297,4.3257,4.3312,4.3399,4.3406,4.3294,4.3294,4.3293,0,4.3729,4.3695,4.3691,4.3676,4.3619,4.3618,4.3595,4.3557,4.3542,4.3516,4.3506,4.3479,4.3464,4.3444,4.3397,4.3376,4.339,4.335,4.337,4.3371,4.3374,4.3375,4.3461,4.3369,4.3368,4.3368,4.3368,0,4.3789,4.3792,4.3725,4.3722,4.3723,4.3671,4.3673,4.3644,4.3611,4.3602,4.3552,4.3544,4.3483,4.3469,4.3433,4.3427,4.3421,4.3402,4.3392,4.3406,4.3408,4.3396,4.3392,4.337,4.337,4.3369,4.3369,0,4.3874,4.3829,4.3821,4.3768,4.3755,4.3758,4.3713,4.3708,4.3674,4.3663,4.3657,4.3604,4.3584,4.3536,4.3503,4.3479,4.3483,4.3465,4.3495,4.3489,4.3511,4.351,4.3592,4.36,4.3504,4.3505,4.3506,0,4.3915,4.3916,4.3864,4.3854,4.3833,4.3818,4.3803,4.3752,4.3738,4.3698,4.3698,4.3674,4.3652,4.3623,4.3581,4.3556,4.3537,4.3567,4.3532,4.3546,4.3536,4.3537,4.3536,4.3575,4.3576,4.3577,4.3578,0,4.3993,4.3971,4.3952,4.3926,4.391,4.3886,4.386,4.3855,4.3797,4.3785,4.3764,4.3747,4.3714,4.3691,4.366,4.3634,4.3597,4.359,4.3593,4.3606,4.3623,4.3614,4.3516,4.3588,4.3587,4.3586,4.3586,4.3585,4.4056,4.4054,4.4018,4.3998,4.3973,4.395,4.3943,4.3909,4.3891,4.3861,4.3832,4.3814,4.3778,4.3732,4.3709,4.3694,4.3675,4.368,4.3681,4.3682,4.3688,4.3627,4.3688,4.3688,4.3688,4.3687,4.3687,0,4.4131,4.4105,4.4088,4.4053,4.4038,4.4005,4.3974,4.3964,4.3949,4.3919,4.3899,4.3875,4.3853,4.381,4.3783,4.378,4.3762,4.3774,4.3774,4.3768,4.3707,4.3707,4.3789,4.3789,4.3789,4.3789,4.3789,4.3789,4.4168,4.4163,4.4137,4.4119,4.4092,4.4075,4.4061,4.4039,4.4015,4.3991,4.3972,4.3945,4.3909,4.388,4.3858,4.3846,4.3838,4.3856,4.3839,4.3782,4.3773,4.3763,4.3763,4.3855,4.3855,4.39,4.3901,4.3901]},{"header":{"parameterUnit":"m.s-1","parameterCategory":1,"la1":30.2991,"la2":30.254,"lo1":-89.0895,"lo2":-89.0444,"dy":0.0017,"dx":0.0017,"nx":28,"ny":28,"refTime":"2023-11-20T03:00:00:Z","depth":0,"parameterNumber":3,"parameterNumberName":"V-component_of_WINDS"},"data":[0,0,0,0,0,0,0,0,0,0,0,0,0,0,0,0,0,0,0,0,0,0,0,0,0,0,0,0,0,0,0,0,0,0,0,0,0,0,0,0,0,0,0,0,0,0,0,0,0,0,0,0,0,0,0,0,0,0,5.3935,5.3939,0,5.4247,5.4251,5.4254,5.4347,5.4345,5.4344,5.4342,5.4652,5.4661,5.4671,0,0,0,0,0,0,0,0,0,0,0,0,0,5.3406,5.3415,5.3935,5.3939,5.3943,5.4246,5.4251,5.4255,5.4347,5.4345,5.4343,5.4341,5.4649,5.466,5.4672,0,0,0,0,0,0,0,0,0,0,0,0,0,5.3668,5.3418,5.3934,5.4026,5.4037,5.4246,5.4251,5.4256,5.4348,5.4345,5.4343,5.4341,5.4645,5.4659,5.4673,5.4811,0,0,5.4718,5.4724,0,0,0,0,0,0,0,0,5.3653,5.3687,5.4008,5.402,5.4033,5.4256,5.4178,5.4442,5.4348,5.4229,5.4342,5.4339,5.4521,5.4546,5.4609,5.4825,5.4838,5.4719,5.4728,5.4734,5.4738,0,0,0,0,0,0,0,5.3635,5.3675,5.4058,5.4013,5.4028,5.4047,5.4081,5.4228,5.4384,5.4239,5.4247,5.4283,5.4527,5.4595,5.4617,5.4843,5.4719,5.4732,5.4741,5.4746,5.5182,5.5185,0,0,0,0,0,0,5.3603,5.3659,5.4048,5.4068,5.3834,5.4058,5.4097,5.4186,5.4383,5.4411,5.4285,5.4286,5.4571,5.46,5.4628,5.4801,5.4734,5.4748,5.4756,5.518,5.5183,5.5186,0,0,0,0,0,0,5.3591,5.3637,5.4036,5.3865,5.3918,5.407,5.4169,5.4194,5.4262,5.4418,5.4445,5.4326,5.4571,5.4608,5.4764,5.4813,5.4754,5.4768,5.5176,5.5181,5.5185,5.5147,0,0,0,0,0,0,5.3576,5.3632,5.3689,5.3866,5.3927,5.4171,5.4173,5.4202,5.4288,5.4293,5.4464,5.4489,5.4572,5.4742,5.4779,5.4832,5.4779,5.5173,5.5178,5.5183,5.5145,5.515,5.5154,0,0,0,0,0,5.3556,5.3665,5.3692,5.3738,5.4002,5.4173,5.4207,5.4303,5.4291,5.4348,5.4447,5.4484,5.4801,5.4757,5.48,5.4858,5.517,5.5177,5.5183,5.5143,5.5149,5.5154,0,0,0,0,0,0,5.3488,5.369,5.3722,5.3892,5.4015,5.4189,5.4264,5.4306,5.4432,5.4431,5.454,5.4578,5.4726,5.4807,5.4755,5.4998,5.4986,5.5001,5.4941,5.4948,5.4952,5.493,5.4791,0,0,0,0,0,5.3493,5.3619,5.3787,5.392,5.3981,5.4111,5.4189,5.4251,5.4382,5.4433,5.4545,5.4666,5.4793,5.4875,5.5,5.5155,5.5192,5.5215,5.522,5.5223,5.5235,5.532,5.5332,5.5207,5.5207,5.5207,0,0,5.3504,5.363,5.3702,5.391,5.4013,5.4136,5.4154,5.4285,5.4377,5.4452,5.4609,5.4692,5.4835,5.4991,5.5065,5.5063,5.5277,5.5231,5.5232,5.5243,5.5328,5.5339,5.535,5.5211,5.5211,5.521,0,0,5.3588,5.3697,5.3819,5.3921,5.4077,5.4162,5.419,5.4358,5.4418,5.4576,5.4634,5.4741,5.4959,5.5058,5.5136,5.5251,5.5289,5.5288,5.5312,5.5394,5.5404,5.5413,5.5453,5.5466,5.5299,5.5299,5.5299,0,5.3581,5.3775,5.3875,5.4004,5.4092,5.4166,5.4288,5.4381,5.4568,5.4625,5.462,5.4892,5.4993,5.5172,5.52,5.5261,5.5294,5.5271,5.5395,5.5405,5.5415,5.5454,5.5469,5.5298,5.5298,5.5298,5.5299,0,5.3758,5.389,5.3969,5.4151,5.4247,5.4371,5.4486,5.457,5.4622,5.4705,5.4862,5.4986,5.5137,5.5183,5.5235,5.5368,5.5362,5.5374,5.5364,5.5424,5.5463,5.5479,5.5297,5.5297,5.5297,5.5298,0,0,5.3812,5.4045,5.4073,5.4155,5.4329,5.4432,5.4555,5.4706,5.4775,5.4898,5.5004,5.5183,5.5195,5.5284,5.5346,5.5417,5.5498,5.5421,5.5426,5.5431,5.565,5.564,5.5657,5.5523,5.5526,5.5529,5.5638,0,5.3919,5.415,5.4241,5.4427,5.4549,5.4618,5.4726,5.4842,5.4922,5.5033,5.5119,5.5245,5.5252,5.5305,5.5379,5.5473,5.5544,5.5466,5.5619,5.5624,5.5584,5.5677,5.5669,5.5766,5.5654,5.5656,5.5658,0,5.4076,5.4204,5.4402,5.4559,5.4614,5.471,5.4852,5.4958,5.5089,5.5141,5.5238,5.5296,5.5424,5.5403,5.5579,5.5524,5.5591,5.5645,5.5651,5.5671,5.5646,5.5699,5.58,5.5814,5.5683,5.5681,5.568,0,5.4095,5.4316,5.4463,5.4531,5.4718,5.4783,5.4863,5.4991,5.5074,5.5196,5.525,5.5384,5.5458,5.5558,5.5648,5.5625,5.5815,5.5802,5.586,5.5857,5.5899,5.5895,5.6012,5.5939,5.5939,5.5939,5.5939,0,5.4205,5.4324,5.4474,5.4565,5.4698,5.4798,5.4925,5.5009,5.5122,5.5226,5.5292,5.5388,5.55,5.5609,5.5679,5.5813,5.5845,5.5889,5.5906,5.5884,5.5879,5.5931,5.5927,5.5943,5.5942,5.5941,5.5941,0,5.4251,5.4357,5.4521,5.4684,5.4727,5.4818,5.4955,5.5042,5.5123,5.5254,5.529,5.5417,5.5548,5.5647,5.5816,5.5862,5.6004,5.6022,5.5962,5.5971,5.6023,5.6017,5.6179,5.6204,5.6113,5.6113,5.6114,0,5.4315,5.4409,5.4581,5.4657,5.4737,5.4859,5.4944,5.5043,5.5128,5.5281,5.5349,5.5485,5.56,5.5804,5.5909,5.6037,5.6059,5.6106,5.6079,5.6052,5.606,5.6054,5.6062,5.6111,5.6111,5.6112,5.6112,0,5.4418,5.4465,5.4587,5.4727,5.4826,5.494,5.5054,5.5111,5.523,5.5321,5.5458,5.5546,5.5718,5.5851,5.5989,5.6067,5.6108,5.6119,5.6139,5.6119,5.608,5.6101,5.5973,5.6116,5.6115,5.6115,5.6115,5.6115,5.4476,5.4561,5.4695,5.4827,5.4924,5.5028,5.5118,5.521,5.5327,5.5477,5.5527,5.5666,5.5789,5.5979,5.6057,5.6165,5.6165,5.6195,5.6202,5.6208,5.6206,5.6061,5.619,5.619,5.619,5.619,5.619,0,5.4582,5.4671,5.4792,5.4951,5.5053,5.5085,5.5211,5.5294,5.5417,5.553,5.5641,5.5794,5.5922,5.6035,5.6167,5.6231,5.6253,5.6262,5.6259,5.6276,5.6199,5.6168,5.6242,5.6242,5.6242,5.6242,5.6242,5.6242,5.465,5.4795,5.4857,5.5048,5.5135,5.5275,5.5344,5.5439,5.5529,5.5699,5.5807,5.588,5.5991,5.6131,5.6248,5.6277,5.6323,5.6327,5.6361,5.6288,5.6281,5.6275,5.6247,5.6336,5.6336,5.643,5.643,5.6431]}]]